QPF
0.00 0.01 0.02 0.03 0.03 0.02 0.02 0.04 0.04 0.03 0.02 0.02 0.02 0.02 0.01 0.01 0.01 0.01 0.02 0.03 0.02 0.02 0.01 0.01 0.02 0.02 0.02 0.02 0.02 0.01 0.01 0.02 0.02 0.02 0.01 0.01 0.01 0.02 0.02 0.02 0.02 0.03 0.04 0.04
0.00 0.00 0.01 0.02 0.02 0.02 0.02 0.03 0.03 0.02 0.03 0.03 0.02 0.01 0.02 0.02 0.02 0.02 0.03 0.04 0.04 0.02 0.02 0.02 0.02 0.02 0.01 0.01 0.02 0.02 0.02 0.02 0.02 0.02 0.01 0.01 0.01 0.02 0.02 0.02 0.02 0.03 0.04 0.04
0.01 0.00 0.01 0.02 0.02 0.02 0.02 0.03 0.03 0.03 0.03 0.03 0.02 0.02 0.02 0.02 0.02 0.03 0.04 0.05 0.05 0.04 0.03 0.03 0.03 0.03 0.03 0.02 0.01 0.01 0.02 0.02 0.02 0.01 0.01 0.01 0.01 0.02 0.02 0.03 0.03 0.03 0.04 0.04
0.02 0.01 0.02 0.02 0.02 0.02 0.02 0.02 0.03 0.03 0.03 0.03 0.03 0.02 0.02 0.02 0.02 0.02 0.03 0.05 0.05 0.05 0.04 0.04 0.03 0.04 0.04 0.03 0.02 0.02 0.02 0.02 0.02 0.02 0.01 0.01 0.01 0.02 0.02 0.03 0.03 0.03 0.04 0.04
0.03 0.02 0.01 0.01 0.01 0.02 0.02 0.02 0.03 0.03 0.03 0.02 0.03 0.02 0.02 0.02 0.02 0.02 0.03 0.04 0.04 0.04 0.04 0.04 0.04 0.04 0.03 0.03 0.03 0.02 0.02 0.02 0.02 0.02 0.02 0.02 0.01 0.01 0.02 0.03 0.03 0.03 0.04 0.04
0.04 0.03 0.01 0.01 0.01 0.01 0.02 0.02 0.02 0.02 0.02 0.02 0.02 0.02 0.02 0.02 0.02 0.02 0.02 0.03 0.03 0.04 0.03 0.04 0.04 0.04 0.03 0.02 0.02 0.02 0.02 0.02 0.02 0.02 0.02 0.02 0.01 0.01 0.02 0.02 0.03 0.03 0.04 0.04
0.04 0.04 0.02 0.01 0.01 0.01 0.03 0.03 0.02 0.02 0.02 0.02 0.03 0.03 0.03 0.03 0.03 0.02 0.02 0.02 0.02 0.02 0.03 0.05 0.05 0.04 0.04 0.02 0.02 0.02 0.02 0.02 0.03 0.03 0.02 0.02 0.02 0.02 0.02 0.02 0.03 0.03 0.04 0.05
0.04 0.04 0.03 0.01 0.01 0.02 0.03 0.02 0.02 0.02 0.02 0.02 0.02 0.02 0.02 0.02 0.02 0.02 0.02 0.02 0.02 0.02 0.02 0.04 0.05 0.05 0.05 0.04 0.04 0.03 0.02 0.02 0.03 0.03 0.03 0.03 0.03 0.03 0.02 0.02 0.03 0.03 0.03 0.04
0.03 0.02 0.02 0.02 0.02 0.02 0.02 0.02 0.02 0.02 0.02 0.02 0.02 0.02 0.02 0.02 0.02 0.02 0.02 0.02 0.02 0.02 0.02 0.02 0.03 0.04 0.04 0.05 0.04 0.04 0.03 0.03 0.03 0.04 0.04 0.03 0.03 0.03 0.03 0.02 0.02 0.03 0.03 0.03
0.02 0.02 0.02 0.02 0.02 0.02 0.02 0.02 0.02 0.02 0.02 0.02 0.02 0.02 0.02 0.02 0.02 0.02 0.02 0.02 0.02 0.02 0.01 0.01 0.02 0.02 0.03 0.03 0.04 0.05 0.05 0.04 0.04 0.04 0.04 0.04 0.04 0.03 0.02 0.02 0.02 0.02 0.02 0.02
0.02 0.02 0.02 0.02 0.02 0.02 0.02 0.01 0.02 0.02 0.02 0.02 0.02 0.03 0.02 0.02 0.02 0.02 0.02 0.02 0.01 0.01 0.01 0.01 0.01 0.02 0.02 0.02 0.03 0.04 0.05 0.06 0.06 0.05 0.04 0.04 0.03 0.03 0.02 0.02 0.02 0.02 0.02 0.02
0.02 0.02 0.02 0.02 0.02 0.02 0.01 0.01 0.01 0.02 0.02 0.02 0.03 0.02 0.02 0.02 0.02 0.02 0.02 0.02 0.01 0.01 0.01 0.01 0.01 0.01 0.02 0.02 0.03 0.03 0.04 0.05 0.05 0.05 0.04 0.04 0.03 0.03 0.03 0.02 0.02 0.02 0.02 0.02
0.02 0.02 0.02 0.02 0.02 0.02 0.01 0.01 0.01 0.02 0.02 0.02 0.02 0.02 0.02 0.02 0.01 0.01 0.01 0.01 0.01 0.01 0.01 0.01 0.01 0.01 0.01 0.02 0.02 0.02 0.03 0.04 0.04 0.05 0.04 0.04 0.03 0.02 0.02 0.02 0.02 0.02 0.01 0.01
0.02 0.02 0.02 0.02 0.02 0.02 0.01 0.01 0.01 0.02 0.02 0.02 0.02 0.02 0.02 0.02 0.02 0.02 0.02 0.02 0.01 0.01 0.01 0.01 0.01 0.01 0.01 0.01 0.01 0.02 0.02 0.03 0.03 0.04 0.04 0.03 0.02 0.02 0.02 0.01 0.02 0.01 0.01 0.01
0.02 0.02 0.02 0.02 0.01 0.01 0.01 0.01 0.01 0.01 0.02 0.02 0.02 0.02 0.02 0.02 0.02 0.02 0.02 0.02 0.01 0.01 0.01 0.01 0.01 0.01 0.01 0.01 0.01 0.01 0.02 0.02 0.02 0.03 0.03 0.02 0.02 0.02 0.02 0.02 0.01 0.01 0.01 0.01
0.02 0.02 0.02 0.01 0.01 0.01 0.01 0.01 0.01 0.01 0.01 0.01 0.01 0.01 0.02 0.02 0.02 0.02 0.02 0.02 0.02 0.01 0.01 0.01 0.01 0.01 0.01 0.01 0.01 0.01 0.02 0.02 0.02 0.02 0.02 0.02 0.02 0.02 0.02 0.02 0.01 0.01 0.01 0.01
0.01 0.01 0.01 0.01 0.01 0.01 0.01 0.01 0.02 0.02 0.01 0.01 0.01 0.01 0.01 0.02 0.02 0.02 0.02 0.02 0.02 0.02 0.02 0.02 0.01 0.01 0.01 0.01 0.01 0.01 0.01 0.02 0.02 0.02 0.02 0.02 0.02 0.02 0.02 0.02 0.01 0.01 0.01 0.01
0.01 0.01 0.01 0.01 0.01 0.01 0.01 0.01 0.01 0.01 0.01 0.01 0.01 0.01 0.01 0.02 0.02 0.02 0.02 0.02 0.02 0.02 0.02 0.02 0.02 0.01 0.01 0.01 0.01 0.01 0.01 0.01 0.01 0.01 0.02 0.02 0.02 0.02 0.02 0.02 0.02 0.01 0.01 0.01
0.01 0.01 0.01 0.01 0.01 0.01 0.01 0.01 0.01 0.01 0.01 0.01 0.01 0.01 0.01 0.02 0.02 0.02 0.02 0.02 0.01 0.01 0.02 0.02 0.01 0.01 0.01 0.01 0.01 0.01 0.01 0.01 0.01 0.01 0.01 0.01 0.01 0.01 0.01 0.02 0.02 0.01 0.01 0.01
0.01 0.01 0.01 0.01 0.01 0.01 0.01 0.01 0.01 0.01 0.01 0.01 0.01 0.01 0.01 0.01 0.01 0.01 0.01 0.01 0.02 0.02 0.02 0.02 0.01 0.01 0.01 0.01 0.01 0.02 0.02 0.02 0.02 0.01 0.01 0.01 0.01 0.01 0.01 0.01 0.01 0.01 0.01 0.01
0.01 0.01 0.01 0.01 0.01 0.01 0.01 0.01 0.01 0.01 0.01 0.01 0.01 0.01 0.01 0.01 0.01 0.01 0.01 0.01 0.01 0.01 0.01 0.01 0.01 0.01 0.01 0.01 0.02 0.02 0.02 0.02 0.02 0.01 0.01 0.01 0.01 0.01 0.01 0.01 0.01 0.01 0.01 0.01
0.01 0.01 0.01 0.01 0.01 0.01 0.01 0.01 0.01 0.01 0.01 0.01 0.01 0.01 0.01 0.01 0.01 0.01 0.01 0.01 0.01 0.01 0.01 0.01 0.01 0.01 0.02 0.02 0.02 0.01 0.01 0.02 0.01 0.01 0.01 0.01 0.01 0.01 0.01 0.01 0.01 0.01 0.01 0.01
0.01 0.01 0.01 0.01 0.01 0.01 0.01 0.01 0.01 0.01 0.01 0.01 0.01 0.01 0.01 0.01 0.01 0.01 0.01 0.01 0.01 0.01 0.01 0.01 0.01 0.02 0.02 0.02 0.01 0.01 0.01 0.01 0.01 0.01 0.01 0.01 0.01 0.01 0.01 0.01 0.01 0.01 0.01 0.01
0.01 0.01 0.01 0.01 0.01 0.01 0.01 0.01 0.01 0.01 0.01 0.01 0.01 0.01 0.01 0.01 0.01 0.01 0.01 0.01 0.01 0.01 0.01 0.01 0.01 0.01 0.02 0.02 0.01 0.01 0.01 0.01 0.01 0.01 0.01 0.01 0.01 0.01 0.01 0.01 0.01 0.01 0.01 0.01
0.01 0.01 0.01 0.01 0.01 0.01 0.01 0.01 0.01 0.01 0.01 0.01 0.01 0.01 0.01 0.01 0.01 0.01 0.00 0.00 0.00 0.00 0.00 0.01 0.01 0.01 0.01 0.01 0.01 0.01 0.01 0.01 0.01 0.01 0.01 0.01 0.01 0.01 0.01 0.01 0.01 0.01 0.01 0.01
0.01 0.01 0.01 0.01 0.01 0.01 0.01 0.01 0.01 0.00 0.00 0.00 0.00 0.00 0.00 0.00 0.00 0.00 0.00 0.00 0.00 0.00 0.00 0.00 0.00 0.00 0.00 0.01 0.01 0.01 0.01 0.01 0.01 0.01 0.01 0.01 0.01 0.01 0.01 0.01 0.01 0.01 0.01 0.00
0.01 0.01 0.01 0.01 0.01 0.01 0.01 0.01 0.01 0.00 0.00 0.00 0.00 0.00 0.00 0.00 0.00 0.00 0.00 0.00 0.00 0.00 0.00 0.00 0.00 0.00 0.00 0.00 0.00 0.01 0.01 0.01 0.01 0.01 0.01 0.01 0.01 0.01 0.01 0.01 0.01 0.01 0.01 0.01
MSLP
1011.40 1011.83 1012.36 1012.92 1013.45 1013.93 1014.31 1014.62 1014.88 1015.11 1015.34 1015.57 1015.79 1015.96 1016.04 1015.98 1015.73 1015.27 1014.64 1013.87 1013.05 1012.30 1011.71 1011.36 1011.31 1011.58 1012.13 1012.90 1013.80 1014.74 1015.63 1016.42 1017.08 1017.63 1018.09 1018.50 1018.93 1019.40 1019.93 1020.51 1021.14 1021.79 1022.42 1023.02
1013.49 1014.22 1015.04 1015.87 1016.62 1017.24 1017.70 1018.00 1018.16 1018.23 1018.23 1018.21 1018.16 1018.08 1017.94 1017.70 1017.32 1016.80 1016.14 1015.38 1014.58 1013.85 1013.25 1012.87 1012.75 1012.90 1013.31 1013.93 1014.67 1015.46 1016.22 1016.90 1017.49 1017.98 1018.41 1018.81 1019.22 1019.66 1020.17 1020.73 1021.33 1021.93 1022.53 1023.09
1015.84 1016.78 1017.80 1018.79 1019.68 1020.39 1020.87 1021.12 1021.17 1021.06 1020.84 1020.57 1020.26 1019.94 1019.59 1019.19 1018.72 1018.17 1017.52 1016.81 1016.08 1015.40 1014.84 1014.46 1014.29 1014.36 1014.64 1015.10 1015.68 1016.31 1016.93 1017.50 1018.01 1018.44 1018.83 1019.20 1019.59 1020.02 1020.50 1021.03 1021.60 1022.17 1022.72 1023.24
1018.39 1019.39 1020.47 1021.52 1022.44 1023.14 1023.58 1023.75 1023.67 1023.39 1022.97 1022.47 1021.94 1021.42 1020.91 1020.41 1019.89 1019.33 1018.74 1018.12 1017.50 1016.92 1016.43 1016.07 1015.88 1015.88 1016.05 1016.37 1016.80 1017.27 1017.76 1018.22 1018.63 1019.01 1019.35 1019.69 1020.06 1020.46 1020.92 1021.41 1021.93 1022.46 1022.97 1023.44
1020.98 1021.93 1022.94 1023.92 1024.75 1025.36 1025.70 1025.75 1025.54 1025.11 1024.52 1023.86 1023.17 1022.52 1021.91 1021.34 1020.82 1020.32 1019.81 1019.31 1018.82 1018.36 1017.96 1017.66 1017.47 1017.42 1017.51 1017.71 1018.00 1018.33 1018.69 1019.04 1019.37 1019.68 1019.98 1020.29 1020.62 1020.99 1021.40 1021.85 1022.31 1022.78 1023.23 1023.65
1023.47 1024.25 1025.09 1025.89 1026.56 1027.02 1027.22 1027.14 1026.81 1026.26 1025.56 1024.80 1024.02 1023.30 1022.65 1022.09 1021.60 1021.18 1020.79 1020.42 1020.07 1019.74 1019.44 1019.20 1019.03 1018.95 1018.97 1019.07 1019.24 1019.46 1019.71 1019.97 1020.22 1020.47 1020.72 1020.99 1021.28 1021.60 1021.95 1022.33 1022.73 1023.13 1023.50 1023.86
1025.71 1026.26 1026.86 1027.43 1027.88 1028.16 1028.21 1028.01 1027.58 1026.97 1026.22 1025.42 1024.63 1023.90 1023.27 1022.75 1022.34 1022.01 1021.74 1021.51 1021.29 1021.07 1020.87 1020.69 1020.54 1020.45 1020.41 1020.44 1020.52 1020.64 1020.80 1020.97 1021.16 1021.36 1021.57 1021.79 1022.03 1022.29 1022.58 1022.88 1023.18 1023.49 1023.78 1024.05
1027.60 1027.91 1028.25 1028.57 1028.81 1028.90 1028.81 1028.53 1028.05 1027.42 1026.68 1025.91 1025.16 1024.48 1023.92 1023.48 1023.15 1022.92 1022.76 1022.64 1022.53 1022.41 1022.28 1022.15 1022.02 1021.91 1021.84 1021.80 1021.81 1021.86 1021.94 1022.06 1022.20 1022.35 1022.51 1022.69 1022.88 1023.07 1023.28 1023.48 1023.69 1023.89 1024.08 1024.25
1029.12 1029.20 1029.30 1029.40 1029.45 1029.40 1029.21 1028.88 1028.40 1027.81 1027.13 1026.44 1025.77 1025.19 1024.71 1024.36 1024.12 1023.98 1023.91 1023.87 1023.83 1023.78 1023.71 1023.60 1023.48 1023.36 1023.25 1023.16 1023.11 1023.11 1023.14 1023.21 1023.30 1023.42 1023.55 1023.68 1023.81 1023.94 1024.06 1024.17 1024.27 1024.37 1024.45 1024.52
1030.30 1030.21 1030.13 1030.05 1029.96 1029.81 1029.58 1029.24 1028.81 1028.29 1027.71 1027.13 1026.58 1026.11 1025.73 1025.46 1025.30 1025.23 1025.21 1025.22 1025.23 1025.21 1025.16 1025.06 1024.93 1024.79 1024.65 1024.53 1024.44 1024.39 1024.38 1024.41 1024.48 1024.57 1024.66 1024.75 1024.83 1024.90 1024.94 1024.96 1024.96 1024.95 1024.93 1024.91
1031.25 1031.03 1030.83 1030.65 1030.47 1030.27 1030.03 1029.73 1029.37 1028.96 1028.51 1028.06 1027.63 1027.27 1026.98 1026.79 1026.68 1026.64 1026.65 1026.68 1026.70 1026.68 1026.63 1026.52 1026.38 1026.22 1026.05 1025.90 1025.77 1025.69 1025.66 1025.66 1025.71 1025.77 1025.84 1025.89 1025.93 1025.94 1025.91 1025.85 1025.77 1025.67 1025.56 1025.45
1032.08 1031.79 1031.53 1031.28 1031.07 1030.86 1030.65 1030.42 1030.15 1029.85 1029.53 1029.20 1028.89 1028.62 1028.41 1028.27 1028.19 1028.16 1028.17 1028.19 1028.19 1028.16 1028.09 1027.97 1027.81 1027.63 1027.44 1027.26 1027.12 1027.01 1026.96 1026.94 1026.97 1027.01 1027.05 1027.08 1027.09 1027.05 1026.97 1026.85 1026.70 1026.53 1026.35 1026.19
1032.88 1032.58 1032.28 1032.03 1031.81 1031.63 1031.46 1031.30 1031.12 1030.93 1030.71 1030.49 1030.27 1030.08 1029.92 1029.80 1029.73 1029.70 1029.69 1029.68 1029.65 1029.60 1029.50 1029.37 1029.19 1029.00 1028.79 1028.61 1028.45 1028.33 1028.26 1028.23 1028.24 1028.26 1028.29 1028.29 1028.27 1028.20 1028.08 1027.92 1027.73 1027.51 1027.29 1027.08
1033.71 1033.42 1033.14 1032.89 1032.69 1032.53 1032.41 1032.31 1032.21 1032.10 1031.97 1031.83 1031.68 1031.53 1031.40 1031.30 1031.22 1031.16 1031.12 1031.08 1031.02 1030.94 1030.83 1030.68 1030.50 1030.30 1030.09 1029.90 1029.74 1029.61 1029.53 1029.49 1029.48 1029.49 1029.49 1029.48 1029.44 1029.35 1029.21 1029.03 1028.81 1028.57 1028.32 1028.09
1034.58 1034.32 1034.06 1033.83 1033.65 1033.53 1033.45 1033.40 1033.35 1033.30 1033.23 1033.13 1033.02 1032.90 1032.78 1032.66 1032.56 1032.48 1032.40 1032.33 1032.25 1032.15 1032.02 1031.87 1031.69 1031.50 1031.30 1031.12 1030.96 1030.83 1030.74 1030.69 1030.66 1030.65 1030.64 1030.61 1030.54 1030.44 1030.29 1030.10 1029.87 1029.63 1029.37 1029.14
1035.44 1035.22 1034.99 1034.79 1034.64 1034.54 1034.49 1034.46 1034.45 1034.42 1034.38 1034.32 1034.22 1034.11 1033.98 1033.85 1033.73 1033.61 1033.50 1033.41 1033.30 1033.19 1033.06 1032.92 1032.75 1032.58 1032.40 1032.22 1032.07 1031.94 1031.84 1031.78 1031.73 1031.70 1031.67 1031.62 1031.54 1031.43 1031.28 1031.09 1030.86 1030.62 1030.37 1030.14
1036.22 1036.05 1035.86 1035.69 1035.56 1035.48 1035.44 1035.43 1035.43 1035.43 1035.40 1035.34 1035.25 1035.13 1034.98 1034.84 1034.69 1034.55 1034.42 1034.30 1034.18 1034.07 1033.94 1033.81 1033.66 1033.50 1033.34 1033.18 1033.04 1032.91 1032.80 1032.72 1032.66 1032.60 1032.55 1032.48 1032.39 1032.27 1032.11 1031.93 1031.71 1031.48 1031.25 1031.02
1036.86 1036.74 1036.60 1036.46 1036.36 1036.29 1036.27 1036.26 1036.27 1036.26 1036.23 1036.17 1036.08 1035.95 1035.79 1035.63 1035.46 1035.30 1035.15 1035.02 1034.89 1034.78 1034.66 1034.54 1034.41 1034.26 1034.12 1033.97 1033.83 1033.70 1033.58 1033.49 1033.40 1033.32 1033.25 1033.16 1033.05 1032.93 1032.77 1032.59 1032.39 1032.17 1031.94 1031.73
1037.32 1037.25 1037.16 1037.06 1036.98 1036.93 1036.91 1036.91 1036.92 1036.91 1036.88 1036.81 1036.71 1036.58 1036.41 1036.24 1036.06 1035.89 1035.72 1035.58 1035.45 1035.33 1035.21 1035.09 1034.97 1034.85 1034.71 1034.57 1034.43 1034.29 1034.16 1034.05 1033.94 1033.84 1033.74 1033.64 1033.53 1033.39 1033.24 1033.07 1032.87 1032.66 1032.45 1032.23
1037.60 1037.59 1037.54 1037.48 1037.42 1037.39 1037.39 1037.39 1037.39 1037.39 1037.35 1037.29 1037.18 1037.04 1036.87 1036.69 1036.50 1036.32 1036.14 1035.99 1035.85 1035.72 1035.61 1035.49 1035.37 1035.24 1035.11 1034.97 1034.82 1034.68 1034.54 1034.41 1034.29 1034.17 1034.06 1033.95 1033.83 1033.69 1033.54 1033.38 1033.19 1032.99 1032.78 1032.57
1037.73 1037.77 1037.76 1037.73 1037.71 1037.70 1037.70 1037.71 1037.72 1037.71 1037.68 1037.61 1037.50 1037.36 1037.19 1037.00 1036.80 1036.61 1036.43 1036.26 1036.11 1035.97 1035.85 1035.72 1035.60 1035.47 1035.33 1035.18 1035.04 1034.89 1034.74 1034.60 1034.47 1034.35 1034.23 1034.12 1034.00 1033.87 1033.72 1033.56 1033.39 1033.19 1032.98 1032.76
1037.78 1037.85 1037.87 1037.88 1037.88 1037.89 1037.90 1037.92 1037.92 1037.91 1037.87 1037.80 1037.69 1037.55 1037.37 1037.18 1036.98 1036.78 1036.59 1036.41 1036.25 1036.09 1035.95 1035.82 1035.68 1035.54 1035.40 1035.25 1035.10 1034.95 1034.81 1034.67 1034.54 1034.42 1034.31 1034.20 1034.09 1033.97 1033.83 1033.68 1033.50 1033.30 1033.09 1032.85
1037.78 1037.87 1037.93 1037.96 1037.98 1038.00 1038.02 1038.04 1038.05 1038.03 1037.98 1037.90 1037.79 1037.64 1037.46 1037.26 1037.05 1036.84 1036.64 1036.45 1036.27 1036.11 1035.95 1035.80 1035.66 1035.52 1035.37 1035.22 1035.08 1034.93 1034.80 1034.67 1034.56 1034.45 1034.35 1034.25 1034.15 1034.03 1033.90 1033.75 1033.57 1033.36 1033.13 1032.87
1037.77 1037.88 1037.96 1038.01 1038.05 1038.08 1038.11 1038.12 1038.12 1038.09 1038.03 1037.94 1037.81 1037.65 1037.46 1037.25 1037.03 1036.82 1036.60 1036.40 1036.21 1036.04 1035.88 1035.72 1035.57 1035.43 1035.29 1035.15 1035.01 1034.89 1034.77 1034.66 1034.56 1034.47 1034.38 1034.29 1034.20 1034.09 1033.95 1033.79 1033.60 1033.37 1033.11 1032.81
1037.77 1037.89 1037.99 1038.06 1038.11 1038.15 1038.18 1038.19 1038.17 1038.13 1038.05 1037.94 1037.79 1037.61 1037.41 1037.20 1036.97 1036.74 1036.52 1036.32 1036.12 1035.94 1035.78 1035.62 1035.48 1035.34 1035.21 1035.08 1034.97 1034.85 1034.76 1034.66 1034.58 1034.50 1034.43 1034.34 1034.24 1034.12 1033.97 1033.79 1033.57 1033.30 1033.00 1032.66
1037.76 1037.90 1038.02 1038.10 1038.17 1038.22 1038.25 1038.25 1038.22 1038.16 1038.07 1037.93 1037.77 1037.57 1037.35 1037.12 1036.89 1036.66 1036.44 1036.23 1036.04 1035.86 1035.70 1035.56 1035.42 1035.29 1035.17 1035.06 1034.96 1034.87 1034.78 1034.70 1034.62 1034.55 1034.47 1034.37 1034.25 1034.10 1033.92 1033.69 1033.43 1033.11 1032.75 1032.35
1037.73 1037.89 1038.03 1038.14 1038.23 1038.29 1038.32 1038.32 1038.28 1038.20 1038.09 1037.93 1037.75 1037.54 1037.31 1037.07 1036.84 1036.61 1036.39 1036.19 1036.00 1035.84 1035.68 1035.55 1035.42 1035.31 1035.20 1035.10 1035.01 1034.92 1034.83 1034.75 1034.66 1034.57 1034.46 1034.33 1034.17 1033.97 1033.73 1033.44 1033.11 1032.73 1032.30 1031.84
Thickness
5398 5399 5394 5392 5393 5393 5391 5392 5395 5403 5405 5407 5398 5395 5393 5392 5391 5392 5393 5393 5394 5393 5392 5393 5394 5395 5395 5396 5396 5396 5394 5392 5390 5388 5386 5384 5384 5383 5383 5382 5382 5381 5380 5379
5386 5389 5386 5384 5386 5384 5383 5381 5382 5389 5393 5386 5381 5379 5377 5377 5379 5380 5380 5381 5381 5381 5380 5380 5381 5381 5382 5383 5384 5383 5382 5380 5378 5376 5374 5372 5372 5372 5371 5371 5370 5370 5369 5369
5377 5375 5377 5375 5375 5375 5372 5369 5369 5374 5376 5367 5367 5366 5364 5364 5366 5367 5366 5366 5366 5366 5366 5367 5367 5369 5369 5370 5370 5369 5369 5367 5365 5363 5362 5361 5361 5360 5360 5360 5359 5359 5358 5357
5357 5362 5363 5374 5362 5365 5365 5360 5353 5354 5353 5352 5352 5350 5349 5350 5350 5351 5352 5352 5352 5352 5353 5353 5353 5355 5356 5356 5356 5356 5356 5354 5353 5352 5351 5350 5349 5349 5348 5348 5348 5347 5346 5346
5345 5344 5355 5359 5350 5343 5345 5348 5339 5338 5339 5338 5338 5341 5341 5338 5336 5336 5337 5337 5338 5338 5338 5340 5341 5342 5342 5342 5342 5342 5342 5342 5341 5340 5339 5338 5337 5336 5336 5335 5335 5335 5334 5334
5338 5341 5349 5349 5335 5332 5335 5339 5329 5325 5326 5323 5327 5333 5333 5326 5323 5323 5324 5324 5324 5325 5325 5326 5327 5328 5329 5328 5327 5327 5328 5328 5328 5327 5327 5326 5324 5323 5323 5323 5323 5322 5322 5321
5328 5329 5331 5325 5321 5327 5330 5331 5317 5313 5312 5311 5313 5314 5312 5310 5309 5309 5310 5310 5311 5312 5312 5312 5313 5315 5315 5314 5313 5314 5314 5315 5315 5314 5314 5313 5312 5311 5310 5310 5310 5309 5308 5308
5314 5318 5324 5312 5311 5311 5311 5306 5304 5304 5302 5300 5299 5299 5298 5297 5296 5296 5297 5297 5297 5298 5298 5298 5299 5301 5301 5300 5300 5301 5301 5301 5301 5301 5301 5300 5299 5298 5297 5297 5296 5295 5295 5295
5307 5312 5307 5300 5298 5297 5295 5293 5293 5292 5292 5290 5289 5288 5287 5284 5283 5283 5283 5283 5284 5284 5284 5284 5285 5285 5286 5286 5287 5288 5288 5288 5288 5288 5287 5287 5286 5286 5284 5284 5283 5283 5283 5283
5291 5295 5292 5289 5287 5286 5284 5283 5282 5281 5280 5280 5278 5276 5274 5273 5271 5270 5270 5270 5270 5271 5271 5270 5270 5272 5272 5274 5274 5275 5275 5275 5275 5275 5274 5274 5274 5273 5273 5272 5272 5272 5271 5271
5282 5284 5281 5282 5278 5276 5274 5273 5271 5270 5269 5268 5267 5265 5262 5260 5259 5258 5259 5258 5258 5258 5258 5257 5258 5259 5260 5261 5262 5262 5262 5262 5262 5263 5262 5261 5261 5260 5261 5261 5261 5262 5261 5261
5283 5279 5273 5273 5270 5266 5264 5263 5261 5259 5258 5257 5255 5253 5251 5249 5247 5247 5246 5246 5246 5246 5246 5246 5246 5247 5248 5248 5249 5249 5250 5250 5250 5250 5250 5249 5249 5248 5248 5249 5250 5251 5251 5251
5270 5267 5263 5261 5258 5256 5254 5252 5251 5250 5248 5246 5244 5242 5240 5238 5237 5236 5235 5234 5234 5235 5235 5235 5235 5235 5236 5236 5237 5237 5237 5237 5238 5238 5237 5237 5237 5237 5237 5237 5238 5238 5239 5239
5258 5255 5253 5251 5248 5246 5244 5243 5241 5239 5237 5236 5234 5232 5230 5228 5226 5225 5224 5224 5224 5224 5224 5224 5224 5224 5225 5225 5225 5225 5225 5226 5226 5225 5225 5225 5225 5225 5225 5225 5225 5224 5225 5226
5248 5246 5244 5241 5238 5235 5234 5232 5231 5229 5226 5225 5223 5222 5220 5218 5216 5214 5213 5213 5213 5213 5213 5213 5214 5214 5214 5214 5215 5214 5214 5214 5214 5214 5214 5214 5214 5214 5213 5212 5212 5211 5211 5212
5239 5235 5233 5231 5228 5225 5223 5222 5221 5219 5216 5214 5213 5211 5209 5208 5206 5204 5203 5202 5202 5202 5202 5203 5204 5204 5205 5205 5204 5204 5204 5205 5205 5204 5203 5203 5202 5201 5201 5200 5199 5198 5198 5199
5230 5228 5225 5223 5220 5217 5215 5213 5212 5209 5206 5204 5203 5201 5199 5198 5196 5194 5193 5192 5192 5192 5193 5193 5194 5195 5196 5196 5195 5195 5194 5194 5194 5193 5192 5191 5190 5189 5189 5188 5187 5186 5187 5187
5224 5222 5219 5216 5213 5210 5207 5205 5202 5200 5197 5196 5193 5191 5189 5188 5186 5186 5184 5183 5183 5184 5185 5185 5186 5186 5187 5186 5186 5185 5185 5184 5183 5182 5181 5180 5179 5179 5178 5177 5176 5175 5176 5176
5215 5213 5210 5208 5205 5202 5199 5196 5194 5191 5189 5187 5185 5182 5180 5179 5178 5176 5175 5174 5174 5175 5176 5176 5178 5178 5178 5177 5177 5176 5175 5174 5173 5172 5171 5171 5170 5168 5167 5166 5165 5164 5165 5165
5206 5204 5201 5198 5196 5193 5190 5188 5185 5182 5180 5178 5176 5174 5172 5171 5169 5168 5167 5167 5166 5167 5167 5168 5168 5168 5168 5167 5168 5166 5165 5164 5162 5161 5161 5159 5158 5157 5156 5155 5155 5154 5154 5154
5197 5195 5193 5190 5187 5184 5182 5179 5177 5174 5172 5170 5168 5166 5165 5163 5162 5160 5159 5161 5161 5161 5160 5161 5160 5160 5159 5159 5159 5156 5155 5153 5152 5150 5149 5148 5147 5146 5145 5145 5144 5144 5143 5143
5188 5186 5184 5181 5178 5175 5172 5170 5168 5166 5164 5161 5160 5158 5157 5156 5155 5153 5152 5152 5153 5154 5153 5152 5152 5152 5152 5151 5149 5147 5144 5143 5141 5140 5139 5138 5137 5136 5135 5134 5133 5133 5133 5132
5181 5178 5175 5172 5169 5165 5163 5161 5159 5157 5155 5153 5152 5150 5149 5148 5147 5146 5146 5145 5144 5145 5145 5144 5144 5144 5144 5141 5139 5137 5135 5133 5131 5130 5129 5127 5126 5126 5125 5124 5124 5123 5123 5122
5172 5169 5166 5163 5160 5157 5155 5153 5151 5149 5147 5145 5143 5142 5140 5139 5138 5136 5136 5137 5136 5136 5135 5134 5135 5135 5134 5130 5128 5126 5125 5123 5122 5120 5119 5118 5117 5116 5115 5115 5114 5114 5114 5114
5163 5160 5157 5154 5152 5150 5147 5145 5142 5140 5139 5137 5136 5134 5132 5131 5129 5128 5127 5126 5127 5126 5125 5124 5124 5123 5121 5118 5116 5115 5114 5113 5111 5110 5110 5109 5108 5107 5107 5106 5106 5106 5106 5106
5155 5152 5149 5146 5144 5141 5139 5137 5134 5132 5131 5129 5128 5126 5124 5123 5121 5120 5119 5118 5117 5116 5115 5113 5111 5110 5108 5107 5105 5104 5103 5102 5101 5100 5100 5099 5099 5099 5099 5098 5098 5098 5098 5099
5146 5143 5140 5138 5135 5133 5130 5128 5126 5124 5122 5120 5119 5117 5116 5114 5113 5111 5110 5109 5107 5106 5105 5103 5101 5100 5098 5097 5096 5095 5094 5093 5092 5091 5091 5091 5091 5090 5091 5091 5091 5091 5091 5092